Regional Weather Roundup
Issued by NWS

Home | Current Version | Previous Version | Graphics & Text | Print | Product List | Glossary On
Versions: 1 2 3 4 5 6 7 8 9 10 11 12 13 14 15 16 17 18 19 20 21 22 23 24 25 26 27 28 29 30 31 32 33 34 35 36 37 38 39 40 41 42 43 44 45 46 47 48 49 50
800
ASUS43 KDMX 111108
RWRIA

WEATHER ROUNDUP FOR IOWA
NATIONAL WEATHER SERVICE DES MOINES IA
500 AM CST THU FEB 11 2016

NOTE: "FAIR" INDICATES FEW OR NO CLOUDS BELOW 12,000 FEET WITH NO
SIGNIFICANT WEATHER AND/OR OBSTRUCTIONS TO VISIBILITY.

* - THESE STATIONS ARE NOT NWS STATIONS...THUS NOT UNDER NWS
QUALITY CONTROL.  THEY ALSO DO NOT REPORT WEATHER SUCH
AS PRECIPITATION OR FOG.

IAZ001>003-012>014-020>022-031>034-043>046-111200-
   NORTHWEST IOWA

CITY           SKY/WX    TMP DP  RH WIND       PRES   REMARKS
CARROLL *      CLOUDY    10   5  79 E3        30.28R
CHEROKEE *     CLOUDY    14   7  73 CALM      30.29R
DENISON *      CLOUDY    12   7  79 NE10      30.25R WCI  -1
LE MARS *      CLOUDY    14   7  73 VRB3      30.29R
ORANGE CITY *  CLOUDY    12   7  79 E3        30.26R
SHELDON *      CLOUDY    12   5  73 NE9       30.26R WCI   0
SIOUX CITY     CLOUDY    17   9  70 E5        30.29R WCI  10
SPENCER        CLOUDY    11   3  70 NE6       30.28R WCI   1
STORM LAKE *   CLOUDY    12   5  73 NE8       30.26R WCI   1
$$

IAZ055>058-069>071-079>083-090>094-111200-
   SOUTHWEST IOWA

CITY           SKY/WX    TMP DP  RH WIND       PRES   REMARKS
ATLANTIC *     MOCLDY    10   3  72 NE5       30.27R WCI   2
AUDUBON *      CLOUDY    10   5  79 NE9       30.26R WCI  -2
CLARINDA *     PTCLDY    18  14  86 NE8       30.27R WCI   7
COUNCIL BLFS * CLEAR     12   7  79 NE10      30.26R WCI  -1
CRESTON *      CLEAR     10   7  85 NE12      30.25R WCI  -4
HARLAN  *      MOCLDY    10   5  79 NE3       30.30R
LAMONI         CLOUDY    14   8  77 NE10      30.23R WCI   1
RED OAK *      MOCLDY    16  10  79 NE13      30.26R WCI   2
SHENANDOAH *   CLOUDY    18  18 100 NE12      30.27R WCI   5
$$

IAZ047>049-059>061-072>074-084-111200-
   CENTRAL IOWA

CITY           SKY/WX    TMP DP  RH WIND       PRES   REMARKS
AMES           CLOUDY    -1  -5  82 CALM      30.30R
ANKENY *       CLEAR      5  -2  72 N5        30.30R WCI  -4
BOONE *        CLOUDY     5  -2  72 CALM      30.28R
CHARITON *     MOCLDY     9   1  72 NE6       30.27R WCI  -1
DES MOINES     CLOUDY     8  -2  63 NE7       30.29R WCI  -3
GRINNELL*      CLOUDY     5   0  78 N3        30.28R
KNOXVILLE *    CLEAR      9  -2  61 N6        30.27R WCI  -1
MARSHALLTOWN   CLOUDY     2  -4  76 N8        30.28R WCI -12
NEWTON *       CLEAR      5  -2  72 N6        30.29R WCI  -6
PELLA *        PTCLDY     7   0  72 CALM      30.31R
$$

IAZ004>006-015-016-023>025-035-036-111200-
   NORTH CENTRAL IOWA

CITY           SKY/WX    TMP DP  RH WIND       PRES   REMARKS
ALGONA *       CLEAR      3   0  85 N5        30.27R WCI  -6
CLARION *      CLEAR     -6 -13  71 NE8       30.29R WCI -21
ESTHERVILLE    PTCLDY    -1  -4  87 NW5       30.28R WCI -11
FORT DODGE *   CLOUDY     5  -4  66 NE5       30.29R WCI  -4
MASON CITY     PTCLDY    -2  -7  79 CALM      30.29R
FOREST CITY *  CLEAR     -4  -8  84 CALM      30.27R
WEBSTER CITY * CLEAR      3  -4  72 NE5       30.27R WCI  -6
IOWA FALLS *     N/A      3  -4  72 N5        30.29R WCI  -6
$$

IAZ007>011-017>019-026>030-037>042-050>054-066-111200-
   NORTHEAST IOWA

CITY           SKY/WX    TMP DP  RH WIND       PRES   REMARKS
CEDAR RAPIDS   CLOUDY     5   0  79 N6        30.26R WCI  -6
CHARLES CITY * CLEAR     -2  -9  71 N6        30.29R WCI -14
CLINTON *      CLEAR      4   0  83 N9        30.29R WCI -10
DECORAH *      CLEAR      1  -4  78 CALM      30.26R
DUBUQUE        CLEAR      5  -2  72 N6        30.26R WCI  -6
MONTICELLO *   CLEAR      7   0  72 CALM      30.28R
OELWEIN *      CLEAR      1  -6  71 N8        30.27R WCI -12
WATERLOO       CLOUDY     0  -5  79 NW6       30.29R WCI -12
$$

IAZ064-065-067-068-078-111200-
   EAST CENTRAL IOWA

CITY           SKY/WX    TMP DP  RH WIND       PRES   REMARKS
DAVENPORT      CLEAR      7   1  76 N5        30.28R WCI  -2
IOWA CITY      CLOUDY     9   1  70 N7        30.30R WCI  -2
MT. PLEASANT * CLOUDY    10   5  79 N6        30.28R WCI   1
MUSCATINE *    CLEAR      9   3  78 CALM      30.31R
QUAD CITIES    CLOUDY    11   2  67 CALM      30.29R
$$

IAZ062-063-075>077-085>089-095>099-111200-
   SOUTHEAST IOWA

CITY           SKY/WX    TMP DP  RH WIND       PRES   REMARKS
BURLINGTON     CLOUDY     9   2  73 N7        30.27R WCI  -2
FAIRFIELD *    CLEAR      7   0  72 N8        30.28R WCI  -6
FORT MADISON * CLEAR      9   3  78 N5        30.28R WCI   0
KEOKUK *       PTCLDY    14   7  73 NE5       30.26R WCI   6
OSKALOOSA *      N/A      7   3  85 N8        30.28R WCI  -6
CENTERVILLE *  MOCLDY    14   5  67 N7        30.26S WCI   4
OTTUMWA        CLOUDY     8   2  76 N7        30.27R WCI  -3
WASHINGTON *   CLEAR      9   1  72 N7        30.30R WCI  -3
$$

ABBREVIATIONS USED IN REMARKS
   TC - TEMPERATURES IN CELSIUS
  WCI - WIND CHILL INDEX
   HX - HEAT INDEX
  VSB - VISIBILITY
$$





USA.gov is the U.S. government's official web portal to all federal, state and local government web resources and services.